{"data":{"norad_id":56805,"intl_designator":"2023-078AQ","name":"STARLINK-6064","alt_names":[],"object_type":"PAYLOAD","status":"ACTIVE","operator":null,"country":"US","launch_date":"2023-05-31","launch_site_code":"AFWTR","launch_vehicle":null,"mission":null,"orbit_class":"UNKNOWN","rcs_meters":null,"size_class":null,"mass_kg":null,"dimensions":null,"purposes":["comms"],"wikipedia_slug":null,"has_3d_model":false,"image_url":null,"decayed_at":null,"tle_current":{"epoch":"2026-05-25T02:57:22.968000Z","epoch_age_seconds":57776,"freshness":"FRESH","line1":"1 56805U 23078AQ  26145.12318250  .00001733  00000+0  15300-3 0  9999","line2":"2 56805  69.9988 131.6940 0003740 263.2997  96.7737 14.98324375164625","mean_motion":14.98324375,"eccentricity":0.000374,"inclination_deg":69.9988,"raan_deg":131.694,"arg_perigee_deg":263.2997,"mean_anomaly_deg":96.7737,"bstar":0.000153,"rev_number":16462,"period_min":96.107359929988,"perigee_km":569.47390720042,"apogee_km":574.67266449424,"semimajor_km":6950.2102858473,"source":"CELESTRAK","updated_at":"2026-05-25T13:38:18.159106Z"}}}